sat.trackr.live / text

‹ back to catalog

OCEANSAT-2

NORAD 35931 · 2009-051A

PAYLOAD ACTIVE UNKNOWN

§ Identity

Operator
Country
IND
Launch date
2009-09-23
Launch site
SRILR
Launch vehicle
Mass (kg)
RCS (m²)
4.06

Purposes: earth_obs

External: N2YO · Heavens-Above · Gunter

§ Orbital elements

Epoch: 2026-05-25T04:20:46.962240Z

Period
102.88 min
Inclination
98.2309°
Eccentricity
0.0014624
Mean motion
13.99655039 rev/d
Perigee alt
884.4 km
Apogee alt
905.6 km
Semi-major
7,273.1 km
B*
2.8822e-4
RAAN
134.3296°
Arg perigee
306.3737°
Mean anomaly
53.6080°
Rev number
87,611

§ Raw data

OCEANSAT-21 35931U 09051A   26145.18109910  .00000384  00000+0  28822-3 0  99922 35931  98.2309 134.3296 0014624 306.3737  53.6080 13.99655039876113

JSON: /api/v1/satellites/35931 · /tle

For live sub-satellite position, see the globe view (requires WebGL).

§ Visibility from observer

Set your observer location to see the next 7 days of passes ≥ 10°. The values pass through the URL so the page stays shareable.

No JS? Fill the form by hand. The geolocation button needs JavaScript.

§ Radio — SatNOGS DB

ModeDescriptionDownlinkUplink
FM Mode S dumps 2.245 GHz
BPSK S-band telemetry 2.250 GHz

2 transmitters · refreshed weekly from db.satnogs.org